Regional Weather Roundup
Issued by NWS Little Rock, AR

Home | Current Version | Previous Version | Text Only | Print | Product List | Glossary Off
Versions: 1 2 3 4 5 6 7 8 9 10 11 12 13 14 15 16 17 18 19 20 21 22 23 24 25 26 27 28 29 30 31 32 33 34 35 36 37 38 39 40 41 42 43 44 45 46 47 48 49 50

832
ASUS44 KLZK 200612
RWRLZK

WEATHER ROUNDUP FOR ARKANSAS
NATIONAL WEATHER SERVICE LITTLE ROCK AR
100 AM CDT FRI OCT 20 2017

NOTE: "FAIR" INDICATES FEW OR NO CLOUDS BELOW 12,000 FEET WITH NO
SIGNIFICANT WEATHER AND/OR OBSTRUCTIONS TO VISIBILITY.

ARZ001-003-010-029-200700-
NORTHWEST ARKANSAS

CITY           SKY/WX    TMP DP  RH WIND       PRES   REMARKS
FAYETTEVILLE   FAIR      46  46 100 VRB6      30.15S
6HR MIN TEMP:  45; 6HR MAX TEMP:  61;

FORT SMITH     FAIR      60  53  77 N3        30.16R
6HR MIN TEMP:  59; 6HR MAX TEMP:  73;

HARRISON       FAIR      59  51  75 SE13      30.17F
6HR MIN TEMP:  55; 6HR MAX TEMP:  68;

BENTONVILLE    FAIR      54  49  83 SE5       30.17S
6HR MIN TEMP:  54; 6HR MAX TEMP:  70;

ROGERS         FAIR      57  50  77 SE6       30.17R
6HR MIN TEMP:  57; 6HR MAX TEMP:  68;

SILOAM SPGS    FAIR      50  47  89 CALM      30.16S
6HR MIN TEMP:  50; 6HR MAX TEMP:  68;

HIGHFILL       FAIR      53  48  83 CALM      30.16S
6HR MIN TEMP:  53; 6HR MAX TEMP:  68;

$$

ARZ004-005-016-200700-
NORTH CENTRAL ARKANSAS

CITY           SKY/WX    TMP DP  RH WIND       PRES   REMARKS
BATESVILLE     FAIR      59  50  72 SE3       30.20S
6HR MIN TEMP:  59; 6HR MAX TEMP:  69;

FLIPPIN        FAIR      54  50  86 CALM      30.18S
6HR MIN TEMP:  54; 6HR MAX TEMP:  72;

MTN HOME       FAIR      57  52  83 SE5       30.17S
6HR MIN TEMP:  56; 6HR MAX TEMP:  69;

$$

ARZ040-041-200700-
WEST CENTRAL ARKANSAS

CITY           SKY/WX    TMP DP  RH WIND       PRES   REMARKS
MENA           FAIR      52  52 100 CALM      30.18S
$$

ARZ009-017-025-026-028-200700-
NORTHEAST ARKANSAS

CITY           SKY/WX    TMP DP  RH WIND       PRES   REMARKS
JONESBORO      FAIR      50  49  96 CALM      30.20S
6HR MIN TEMP:  50; 6HR MAX TEMP:  67;

NEWPORT        FAIR      55  50  83 S3        30.20S
6HR MIN TEMP:  55; 6HR MAX TEMP:  63;

WALNUT RIDGE   FAIR      55  49  80 SW3       30.19F
6HR MIN TEMP:  53; 6HR MAX TEMP:  65;

BLYTHEVILLE    FAIR      57  53  86 S6        30.21S
6HR MIN TEMP:  57; 6HR MAX TEMP:  67;

$$

ARZ022-023-033-042-044-200700-
CENTRAL ARKANSAS

CITY           SKY/WX    TMP DP  RH WIND       PRES   REMARKS
LITTLE ROCK    FAIR      53  52  96 CALM      30.19S
6HR MIN TEMP:  53; 6HR MAX TEMP:  68;

JACKSONVILLE   FAIR      52  51  96 CALM      30.18S
6HR MIN TEMP:  50; 6HR MAX TEMP:  68;

SEARCY         FAIR      51  51 100 CALM      30.20S
6HR MIN TEMP:  51; 6HR MAX TEMP:  66;

HOT SPRINGS    FAIR      57  52  83 E5        30.18F
6HR MIN TEMP:  56; 6HR MAX TEMP:  70;

RUSSELLVILLE   FAIR      54  53  97 CALM      30.17S
6HR MIN TEMP:  53; 6HR MAX TEMP:  68;

CLINTON        CLOUDY    48  48 100 CALM      30.20S
$$

ARZ036-200700-
EAST ARKANSAS

CITY           SKY/WX    TMP DP  RH WIND       PRES   REMARKS
WEST MEMPHIS   FAIR      52  51  97 S3        30.19F
6HR MIN TEMP:  50; 6HR MAX TEMP:  61;

$$

ARZ050-053-066-070-073-200700-
SOUTHWEST ARKANSAS

CITY           SKY/WX    TMP DP  RH WIND       PRES   REMARKS
CAMDEN         FAIR      50  48  93 CALM      30.17S
TEXARKANA      FAIR      61  56  83 SE3       30.16F
6HR MIN TEMP:  61; 6HR MAX TEMP:  71;

EL DORADO      FAIR      52  52 100 CALM      30.17F FOG
6HR MIN TEMP:  51; 6HR MAX TEMP:  66;

DE QUEEN       FAIR      52  52 100 NE5       30.14F
6HR MIN TEMP:  52; 6HR MAX TEMP:  66;

$$

ARZ056-057-069-200700-
SOUTHEAST ARKANSAS

CITY           SKY/WX    TMP DP  RH WIND       PRES   REMARKS
PINE BLUFF     FAIR      53  50  89 CALM      30.18F
6HR MIN TEMP:  51; 6HR MAX TEMP:  69;

STUTTGART      FAIR      59  52  77 SE3       30.19S
6HR MIN TEMP:  53; 6HR MAX TEMP:  69;

MONTICELLO     FAIR      55  52  89 CALM      30.19S
6HR MIN TEMP:  54; 6HR MAX TEMP:  64;


$$






USA.gov is the U.S. government's official web portal to all federal, state and local government web resources and services.